This is the latest recevied weather packets stored in our database for station/object W0SS-13. If no packets are shown the sender has not sent any weather packets the latest 10 day(s).
| Time | Temp. | Humidity | Pressure | Rain* | Wind** | Luminosity | Snow |
|---|---|---|---|---|---|---|---|
| 1777995748 | 8.89° C | 86% | 1013.7 hPa | 3.05 mm | - | 98 W/m² | - |
| 1777995444 | 8.89° C | 85% | 1013.8 hPa | 1.27 mm | - | 92 W/m² | - |
| 1777995141 | 8.89° C | 86% | 1013.9 hPa | 0 mm | - | 94 W/m² | - |
| 1777994839 | 8.89° C | 86% | 1013.8 hPa | 0 mm | - | 61 W/m² | - |
| 1777994535 | 8.89° C | 85% | 1013.7 hPa | 0 mm | - | 66 W/m² | - |
| 1777994229 | 8.89° C | 86% | 1014.1 hPa | 0 mm | - | 55 W/m² | - |
| 1777993927 | 8.89° C | 85% | 1013.2 hPa | 0 mm | - | 75 W/m² | - |
| 1777993623 | 9.44° C | 85% | 1013.2 hPa | 0 mm | - | 95 W/m² | - |
| 1777993322 | 8.89° C | 84% | 1013.3 hPa | 0 mm | - | 103 W/m² | - |
| 1777993021 | 9.44° C | 84% | 1013.4 hPa | 0 mm | - | 88 W/m² | - |
| 1777992720 | 8.89° C | 84% | 1013.3 hPa | 0 mm | - | 123 W/m² | - |
| 1777992417 | 8.89° C | 84% | 1013.1 hPa | 0 mm | - | 112 W/m² | - |
| 1777992115 | 9.44° C | 84% | 1012.7 hPa | 0 mm | - | 111 W/m² | - |
| 1777991812 | 9.44° C | 85% | 1012.9 hPa | 0 mm | - | 146 W/m² | - |
| 1777991509 | 8.89° C | 86% | 1013 hPa | 0 mm | - | 139 W/m² | - |
| 1777991206 | 8.89° C | 86% | 1012.7 hPa | 0 mm | - | 149 W/m² | - |
| 1777990903 | 8.89° C | 86% | 1012.8 hPa | 0 mm | - | 206 W/m² | - |
| 1777990601 | 8.89° C | 87% | 1013 hPa | 1.78 mm | - | 153 W/m² | - |
| 1777989994 | 8.33° C | 87% | 1013.1 hPa | 1.27 mm | - | 49 W/m² | - |
| 1777989691 | 8.89° C | 87% | 1012.8 hPa | 3.05 mm | - | 40 W/m² | - |
| 1777989386 | 8.89° C | 86% | 1013.2 hPa | 1.78 mm | - | 30 W/m² | - |
| 1777989083 | 8.89° C | 86% | 1012.9 hPa | 0 mm | - | 39 W/m² | - |
| 1777988779 | 8.89° C | 85% | 1013 hPa | 1.27 mm | - | 34 W/m² | - |
| 1777988477 | 8.89° C | 85% | 1013.4 hPa | 1.27 mm | - | 17 W/m² | - |
| 1777988174 | 8.89° C | 85% | 1013 hPa | 1.78 mm | - | 17 W/m² | - |
* Rain latest hour (hover to see other rain measurements)
** Current wind speed in m/s (hover to see current wind gust speed)